sat.trackr.live / text

‹ back to catalog

STARLINK-32201

NORAD 61512 · 2024-183D

PAYLOAD ACTIVE UNKNOWN

§ Identity

Operator
Country
US
Launch date
2024-10-15
Launch site
AFETR
Launch vehicle
Mass (kg)
RCS (m²)

Purposes: comms

External: N2YO · Heavens-Above · Gunter

§ Orbital elements

Epoch: 2026-09-21T19:01:27.526080Z

Period
93.85 min
Inclination
53.1614°
Eccentricity
0.0001343
Mean motion
15.34382520 rev/d
Perigee alt
461.8 km
Apogee alt
463.7 km
Semi-major
6,840.9 km
B*
-1.0659e-5
RAAN
295.4580°
Arg perigee
88.8919°
Mean anomaly
271.2238°
Rev number
10,989

§ Raw data

STARLINK-322011 61512U 24183D   26264.79267970 -.00000736  00000+0 -10659-4 0  99922 61512  53.1614 295.4580 0001343  88.8919 271.2238 15.34382520109899

JSON: /api/v1/satellites/61512 · /tle

For live sub-satellite position, see the globe view (requires WebGL).

§ Visibility from observer

Set your observer location to see the next 7 days of passes ≥ 10°. The values pass through the URL so the page stays shareable.

No JS? Fill the form by hand. The geolocation button needs JavaScript.